contact:dominique.lefevre@mio.osupytheas.fr, maurice.libes@osupytheas.fr, didier.mallarino@osupytheas.fr
Project:EMSO http://www.emso-fr.org/EMSO-France
Depth: 2436.0 m
Title:EMSO Ligure Ouest : Data MII capteur AQUADOPP
Date,Latitude,Longitude,X_East,Y_North,Z_Up,Amplitude_X,Amplitude_Y,Amplitude_Z,Batterie,SoundSpeed,Heading,Pitch,Roll,Pressure,TIS,Speed,Direction
, degrees North, degrees East, m.s-1, m.s-1,m.s-1, 1, 1, 1, Volt, m.s-1, degree, degree, degree, dbar, degree_C, m.s-1, degree
2020-01-30T00:04:03,42.805,6.029,0.012,0.018,-0.008,104.0,120.0,101.0,13.3,1505.2,326.8,-0.7,1.8,2470.215,13.3,0.021,33.7
2020-01-30T00:07:03,42.805,6.029,-0.02,0.029,-0.031,104.0,121.0,101.0,13.4,1505.3,323.9,-0.7,1.8,2470.242,13.31,0.035,325.4
2020-01-30T00:10:03,42.805,6.029,-0.005,0.028,-0.02,103.0,120.0,101.0,13.4,1505.3,326.2,-0.7,1.8,2470.259,13.32,0.028,349.9
2020-01-30T00:13:03,42.805,6.029,0.02,0.043,-0.003,104.0,120.0,102.0,13.3,1505.3,325.0,-0.7,1.9,2470.21,13.32,0.047,24.9
2020-01-30T00:16:03,42.805,6.029,0.0,0.029,-0.023,102.0,121.0,103.0,13.3,1505.3,328.0,-0.7,1.8,2470.189,13.32,0.028,0.0
2020-01-30T00:19:03,42.805,6.029,0.008,0.02,-0.012,104.0,120.0,102.0,13.4,1505.3,325.6,-0.7,1.8,2470.227,13.32,0.021,21.8
2020-01-30T00:22:03,42.805,6.029,-0.011,0.017,-0.035,104.0,122.0,101.0,13.4,1505.3,326.9,-0.7,1.8,2470.228,13.32,0.02,327.1
2020-01-30T00:25:03,42.805,6.029,0.005,0.026,-0.018,105.0,121.0,102.0,13.3,1505.3,327.9,-0.7,1.8,2470.179,13.32,0.026,10.9
2020-01-30T00:28:03,42.805,6.029,-0.021,0.021,-0.048,104.0,122.0,101.0,13.4,1505.3,324.5,-0.7,1.8,2470.173,13.33,0.029,315.0
2020-01-30T00:31:03,42.805,6.029,-0.005,0.029,-0.021,104.0,122.0,102.0,13.3,1505.3,324.8,-0.7,1.9,2470.225,13.32,0.029,350.2
2020-01-30T00:34:03,42.805,6.029,0.002,0.039,0.003,103.0,122.0,99.0,13.4,1505.3,326.9,-0.7,1.8,2470.208,13.33,0.039,2.9
2020-01-30T00:37:03,42.805,6.029,-0.001,0.027,-0.036,105.0,121.0,100.0,13.4,1505.3,327.7,-0.7,1.8,2470.17,13.33,0.027,357.9
2020-01-30T00:40:03,42.805,6.029,-0.027,0.061,-0.039,105.0,123.0,100.0,13.3,1505.3,325.0,-0.7,1.8,2470.218,13.33,0.066,336.1
2020-01-30T00:43:03,42.805,6.029,0.007,0.044,-0.012,104.0,122.0,101.0,13.3,1505.3,326.1,-0.7,1.8,2470.15,13.33,0.044,9.0
2020-01-30T00:46:03,42.805,6.029,0.007,0.036,-0.013,103.0,124.0,100.0,13.3,1505.3,324.0,-0.7,1.8,2470.203,13.32,0.036,11.0
2020-01-30T00:49:03,42.805,6.029,-0.017,0.051,-0.017,104.0,121.0,101.0,13.4,1505.3,323.8,-0.7,1.8,2470.155,13.32,0.053,341.6
2020-01-30T00:52:03,42.805,6.029,-0.005,0.047,-0.029,104.0,126.0,100.0,13.4,1505.3,324.5,-0.7,1.9,2470.188,13.32,0.047,353.9
2020-01-30T00:55:03,42.805,6.029,0.0,0.049,-0.03,104.0,121.0,101.0,13.3,1505.3,324.5,-0.7,1.8,2470.176,13.33,0.049,0.0
2020-01-30T00:58:03,42.805,6.029,-0.003,0.034,-0.036,105.0,122.0,101.0,13.3,1505.3,328.5,-0.7,1.8,2470.159,13.33,0.034,355.0
2020-01-30T01:04:03,42.805,6.029,-0.024,0.032,0.003,105.0,122.0,102.0,13.3,1505.3,324.6,-0.7,1.8,2470.214,13.31,0.04,323.1
2020-01-30T01:07:03,42.805,6.029,-0.012,0.056,-0.047,104.0,120.0,102.0,13.3,1505.3,324.7,-0.7,1.8,2470.198,13.31,0.057,347.9
2020-01-30T01:10:02,42.805,6.029,0.017,0.028,-0.023,105.0,120.0,101.0,13.4,1505.3,324.8,-0.7,1.8,2470.218,13.32,0.032,31.3
2020-01-30T01:13:03,42.805,6.029,0.007,0.041,0.0,104.0,121.0,101.0,13.4,1505.3,327.2,-0.7,1.8,2470.221,13.32,0.041,9.7
2020-01-30T01:16:03,42.805,6.029,0.02,0.03,-0.017,103.0,120.0,100.0,13.3,1505.3,326.5,-0.7,1.8,2470.169,13.32,0.036,33.7
2020-01-30T01:19:03,42.805,6.029,-0.009,0.036,-0.013,104.0,123.0,101.0,13.3,1505.3,325.7,-0.7,1.8,2470.14,13.32,0.037,346.0
2020-01-30T01:22:03,42.805,6.029,0.006,0.023,-0.031,103.0,123.0,101.0,13.3,1505.3,327.2,-0.7,1.8,2470.175,13.33,0.023,14.6
2020-01-30T01:25:03,42.805,6.029,-0.029,0.021,-0.03,105.0,123.0,100.0,13.3,1505.3,328.0,-0.7,1.8,2470.157,13.33,0.035,305.9
2020-01-30T01:28:03,42.805,6.029,-0.02,0.015,-0.007,104.0,123.0,101.0,13.4,1505.3,324.9,-0.7,1.8,2470.152,13.33,0.025,306.9
2020-01-30T01:31:03,42.805,6.029,-0.003,0.036,-0.003,103.0,126.0,102.0,13.4,1505.3,324.7,-0.8,1.8,2470.176,13.33,0.036,355.2
2020-01-30T01:34:03,42.805,6.029,-0.001,0.045,-0.022,105.0,123.0,101.0,13.4,1505.3,328.0,-0.7,1.8,2470.176,13.33,0.045,358.7
2020-01-30T01:37:03,42.805,6.029,-0.007,0.017,-0.026,103.0,124.0,100.0,13.4,1505.3,322.9,-0.7,1.8,2470.169,13.33,0.018,337.6
2020-01-30T01:40:03,42.805,6.029,-0.014,0.043,-0.012,103.0,124.0,101.0,13.4,1505.3,326.4,-0.7,1.8,2470.157,13.33,0.045,342.0
2020-01-30T01:43:03,42.805,6.029,0.005,0.034,-0.017,104.0,119.0,101.0,13.4,1505.3,325.9,-0.7,1.8,2470.176,13.32,0.034,8.4
2020-01-30T01:46:03,42.805,6.029,0.004,0.038,-0.04,103.0,123.0,101.0,13.4,1505.3,327.4,-0.7,1.8,2470.154,13.32,0.038,6.0
2020-01-30T01:49:03,42.805,6.029,0.005,0.032,-0.023,105.0,122.0,101.0,13.3,1505.3,324.4,-0.8,1.9,2470.181,13.33,0.032,8.9
2020-01-30T01:52:03,42.805,6.029,-0.004,0.026,-0.034,104.0,122.0,101.0,13.3,1505.3,324.9,-0.8,1.8,2470.151,13.32,0.026,351.3
2020-01-30T01:55:03,42.805,6.029,0.013,0.027,-0.013,105.0,122.0,100.0,13.4,1505.3,323.1,-0.7,1.8,2470.187,13.32,0.029,25.7
2020-01-30T01:58:03,42.805,6.029,0.009,0.033,-0.045,102.0,120.0,101.0,13.3,1505.3,326.4,-0.7,1.8,2470.145,13.32,0.034,15.3
2020-01-30T02:04:03,42.805,6.029,0.022,0.031,-0.029,103.0,122.0,100.0,13.4,1505.2,327.6,-0.7,1.8,2470.178,13.3,0.038,35.4
2020-01-30T02:07:03,42.805,6.029,0.009,0.039,0.011,104.0,123.0,101.0,13.4,1505.3,326.9,-0.7,1.8,2470.181,13.31,0.04,13.0
2020-01-30T02:10:03,42.805,6.029,0.0,0.046,-0.019,103.0,126.0,101.0,13.3,1505.3,327.0,-0.7,1.9,2470.196,13.32,0.046,0.0
2020-01-30T02:13:03,42.805,6.029,-0.003,0.06,-0.054,104.0,122.0,99.0,13.4,1505.3,324.0,-0.7,1.8,2470.155,13.32,0.06,357.1
2020-01-30T02:16:03,42.805,6.029,-0.008,0.03,-0.033,103.0,122.0,101.0,13.4,1505.3,324.0,-0.7,1.9,2470.168,13.32,0.031,345.1
2020-01-30T02:19:03,42.805,6.029,0.007,0.028,-0.019,103.0,122.0,101.0,13.4,1505.3,326.8,-0.7,1.8,2470.165,13.32,0.028,14.0
2020-01-30T02:22:03,42.805,6.029,-0.017,0.013,-0.024,105.0,122.0,100.0,13.4,1505.3,324.7,-0.7,1.8,2470.148,13.32,0.021,307.4
2020-01-30T02:25:03,42.805,6.029,0.021,0.024,0.017,104.0,120.0,100.0,13.3,1505.3,327.0,-0.7,1.8,2470.136,13.32,0.031,41.2
2020-01-30T02:28:03,42.805,6.029,0.011,0.031,-0.03,104.0,121.0,101.0,13.3,1505.3,323.4,-0.7,1.8,2470.133,13.32,0.032,19.5
2020-01-30T02:31:03,42.805,6.029,0.025,0.016,-0.009,103.0,123.0,101.0,13.4,1505.3,326.8,-0.7,1.9,2470.149,13.32,0.029,57.4
2020-01-30T02:34:03,42.805,6.029,-0.018,0.03,-0.023,105.0,122.0,99.0,13.4,1505.3,324.2,-0.7,1.8,2470.186,13.32,0.034,329.0
2020-01-30T02:37:03,42.805,6.029,0.009,0.024,-0.04,104.0,122.0,100.0,13.4,1505.3,326.9,-0.7,1.9,2470.119,13.32,0.025,20.6
2020-01-30T02:40:03,42.805,6.029,-0.006,0.03,-0.042,103.0,124.0,101.0,13.4,1505.3,324.8,-0.7,1.8,2470.132,13.32,0.03,348.7
2020-01-30T02:43:03,42.805,6.029,-0.021,0.031,-0.001,103.0,123.0,100.0,13.4,1505.3,326.8,-0.7,1.8,2470.141,13.33,0.037,325.9
2020-01-30T02:46:02,42.805,6.029,0.005,0.044,-0.007,105.0,123.0,100.0,13.4,1505.3,326.3,-0.7,1.8,2470.164,13.32,0.044,6.5
2020-01-30T02:49:03,42.805,6.029,-0.006,0.025,-0.027,103.0,122.0,100.0,13.4,1505.3,323.7,-0.7,1.8,2470.127,13.32,0.025,346.5
2020-01-30T02:52:03,42.805,6.029,-0.04,0.021,-0.066,104.0,120.0,102.0,13.4,1505.3,324.3,-0.7,1.8,2470.093,13.33,0.045,297.7
2020-01-30T02:55:03,42.805,6.029,-0.002,0.021,-0.013,104.0,122.0,100.0,13.4,1505.3,322.7,-0.7,1.8,2470.148,13.32,0.021,354.6
2020-01-30T02:58:03,42.805,6.029,0.001,0.029,-0.001,104.0,121.0,100.0,13.4,1505.3,324.7,-0.7,1.8,2470.142,13.33,0.029,2.0
2020-01-30T03:04:03,42.805,6.029,-0.013,0.036,-0.078,104.0,121.0,101.0,13.4,1505.3,328.6,-0.8,1.8,2470.171,13.31,0.038,340.1
2020-01-30T03:07:03,42.805,6.029,-0.002,0.052,-0.008,103.0,121.0,101.0,13.4,1505.3,325.4,-0.7,1.8,2470.181,13.31,0.052,357.8
2020-01-30T03:10:03,42.805,6.029,0.0,0.035,-0.023,103.0,119.0,100.0,13.4,1505.3,328.2,-0.7,1.8,2470.13,13.32,0.035,0.0
2020-01-30T03:13:03,42.805,6.029,0.001,0.054,0.011,103.0,124.0,100.0,13.4,1505.3,325.9,-0.7,1.9,2470.157,13.32,0.054,1.1
2020-01-30T03:16:03,42.805,6.029,-0.012,0.027,-0.021,103.0,124.0,101.0,13.4,1505.3,327.8,-0.7,1.9,2470.156,13.32,0.029,336.0
2020-01-30T03:19:03,42.805,6.029,-0.025,0.03,-0.027,105.0,126.0,101.0,13.4,1505.3,322.8,-0.7,1.8,2470.146,13.32,0.039,320.2
2020-01-30T03:22:03,42.805,6.029,-0.011,0.037,-0.025,104.0,124.0,100.0,13.4,1505.3,324.1,-0.7,1.8,2470.137,13.32,0.038,343.4
2020-01-30T03:25:03,42.805,6.029,-0.018,0.025,-0.022,103.0,122.0,101.0,13.3,1505.3,325.1,-0.7,1.8,2470.136,13.32,0.03,324.2
2020-01-30T03:28:03,42.805,6.029,-0.043,0.024,-0.027,102.0,123.0,101.0,13.3,1505.3,325.2,-0.7,1.9,2470.08,13.33,0.049,299.2
2020-01-30T03:31:03,42.805,6.029,-0.004,0.024,-0.008,103.0,124.0,100.0,13.4,1505.3,324.5,-0.7,1.8,2470.171,13.32,0.024,350.5
2020-01-30T03:34:03,42.805,6.029,-0.008,0.024,-0.039,103.0,124.0,100.0,13.4,1505.3,324.5,-0.7,1.8,2470.153,13.32,0.025,341.6
2020-01-30T03:37:03,42.805,6.029,0.001,0.044,-0.014,103.0,126.0,100.0,13.4,1505.3,327.3,-0.7,1.8,2470.159,13.33,0.044,1.3
2020-01-30T03:40:03,42.805,6.029,0.025,0.026,-0.028,102.0,123.0,100.0,13.4,1505.3,326.8,-0.7,1.8,2470.143,13.33,0.036,43.9
2020-01-30T03:43:03,42.805,6.029,-0.02,0.046,-0.023,103.0,121.0,101.0,13.4,1505.3,324.5,-0.7,1.8,2470.135,13.32,0.05,336.5
2020-01-30T03:46:03,42.805,6.029,-0.036,0.022,-0.045,103.0,125.0,100.0,13.3,1505.3,323.5,-0.7,1.8,2470.16,13.32,0.042,301.4
2020-01-30T03:49:03,42.805,6.029,-0.007,0.037,-0.011,102.0,120.0,101.0,13.4,1505.3,326.6,-0.7,1.8,2470.144,13.32,0.037,349.3
2020-01-30T03:52:03,42.805,6.029,0.023,0.038,-0.01,102.0,122.0,101.0,13.4,1505.3,327.0,-0.7,1.8,2470.146,13.32,0.044,31.2
2020-01-30T03:55:03,42.805,6.029,-0.012,0.036,-0.002,103.0,124.0,100.0,13.4,1505.3,323.5,-0.7,1.8,2470.151,13.32,0.037,341.6
2020-01-30T03:58:03,42.805,6.029,-0.015,0.063,-0.025,102.0,122.0,100.0,13.4,1505.3,324.5,-0.7,1.8,2470.138,13.32,0.064,346.6
2020-01-30T04:04:03,42.805,6.029,-0.009,0.039,0.019,102.0,123.0,102.0,13.4,1505.2,327.6,-0.7,1.8,2470.211,13.3,0.04,347.0
2020-01-30T04:07:03,42.805,6.029,0.028,0.029,-0.008,105.0,125.0,100.0,13.4,1505.3,326.3,-0.7,1.9,2470.146,13.31,0.04,44.0
2020-01-30T04:10:03,42.805,6.029,0.007,0.031,-0.015,104.0,122.0,101.0,13.4,1505.3,328.1,-0.7,1.9,2470.11,13.32,0.031,12.7
2020-01-30T04:13:03,42.805,6.029,0.002,0.039,0.0,103.0,126.0,101.0,13.4,1505.3,323.6,-0.7,1.8,2470.137,13.32,0.039,2.9
2020-01-30T04:16:03,42.805,6.029,0.009,0.031,-0.041,102.0,125.0,99.0,13.3,1505.3,326.4,-0.7,1.9,2470.18,13.32,0.032,16.2
2020-01-30T04:19:03,42.805,6.029,0.002,0.044,-0.013,103.0,124.0,100.0,13.4,1505.3,326.3,-0.7,1.8,2470.138,13.32,0.044,2.6
2020-01-30T04:22:03,42.805,6.029,0.003,0.034,-0.005,103.0,120.0,99.0,13.3,1505.3,326.6,-0.7,1.9,2470.113,13.32,0.034,5.0
2020-01-30T04:25:03,42.805,6.029,0.007,0.048,-0.006,102.0,125.0,101.0,13.4,1505.3,323.8,-0.7,1.8,2470.135,13.32,0.048,8.3
2020-01-30T04:28:03,42.805,6.029,0.011,0.048,-0.046,103.0,123.0,101.0,13.3,1505.3,323.7,-0.7,1.9,2470.128,13.32,0.049,12.9
2020-01-30T04:31:03,42.805,6.029,0.026,0.03,0.003,104.0,124.0,100.0,13.3,1505.3,326.4,-0.7,1.8,2470.138,13.32,0.039,40.9
2020-01-30T04:34:03,42.805,6.029,0.018,0.05,-0.022,104.0,124.0,100.0,13.4,1505.3,324.4,-0.7,1.8,2470.089,13.32,0.053,19.8
2020-01-30T04:37:03,42.805,6.029,0.015,0.047,-0.009,103.0,123.0,99.0,13.3,1505.3,327.9,-0.7,1.8,2470.097,13.32,0.049,17.7
2020-01-30T04:40:03,42.805,6.029,-0.021,0.039,-0.01,103.0,121.0,100.0,13.4,1505.3,326.0,-0.7,1.8,2470.116,13.32,0.044,331.7
2020-01-30T04:43:03,42.805,6.029,-0.012,0.032,-0.013,105.0,122.0,99.0,13.4,1505.3,323.6,-0.7,1.8,2470.12,13.32,0.034,339.4
2020-01-30T04:46:03,42.805,6.029,-0.002,0.024,-0.036,102.0,124.0,100.0,13.4,1505.3,328.4,-0.7,1.8,2470.087,13.32,0.024,355.2
2020-01-30T04:49:03,42.805,6.029,-0.006,0.035,-0.047,101.0,123.0,100.0,13.3,1505.3,324.3,-0.7,1.8,2470.086,13.32,0.035,350.3
2020-01-30T04:52:03,42.805,6.029,-0.013,0.042,-0.017,102.0,123.0,99.0,13.4,1505.3,324.6,-0.7,1.9,2470.112,13.32,0.043,342.8
2020-01-30T04:55:03,42.805,6.029,0.014,0.031,-0.007,102.0,122.0,100.0,13.4,1505.3,324.5,-0.7,1.8,2470.131,13.33,0.034,24.3
2020-01-30T04:58:03,42.805,6.029,0.002,0.005,-0.005,103.0,120.0,100.0,13.3,1505.3,328.1,-0.7,1.8,2470.134,13.33,0.005,21.8
2020-01-30T05:04:03,42.805,6.029,0.002,0.038,-0.026,102.0,121.0,98.0,13.4,1505.3,324.9,-0.7,1.8,2470.151,13.31,0.038,3.0
2020-01-30T05:07:03,42.805,6.029,0.001,0.031,-0.021,103.0,124.0,99.0,13.4,1505.3,323.7,-0.7,1.9,2470.156,13.31,0.031,1.8
2020-01-30T05:10:03,42.805,6.029,-0.015,0.046,-0.032,103.0,125.0,101.0,13.3,1505.3,324.4,-0.7,1.8,2470.192,13.32,0.048,341.9
2020-01-30T05:13:03,42.805,6.029,-0.025,0.037,-0.051,103.0,124.0,101.0,13.4,1505.3,326.8,-0.8,1.8,2470.117,13.32,0.044,326.0
2020-01-30T05:16:03,42.805,6.029,-0.015,0.06,-0.016,102.0,127.0,100.0,13.4,1505.3,324.6,-0.7,1.8,2470.1,13.32,0.061,346.0
2020-01-30T05:19:03,42.805,6.029,-0.006,0.027,-0.03,103.0,122.0,100.0,13.4,1505.3,325.5,-0.7,1.8,2470.131,13.32,0.027,347.5
2020-01-30T05:22:03,42.805,6.029,-0.017,0.045,-0.03,103.0,124.0,99.0,13.3,1505.3,324.6,-0.7,1.8,2470.148,13.32,0.048,339.3
2020-01-30T05:25:03,42.805,6.029,-0.015,0.036,-0.015,104.0,121.0,100.0,13.4,1505.3,323.0,-0.7,1.8,2470.116,13.32,0.039,337.4
2020-01-30T05:28:03,42.805,6.029,-0.003,0.027,-0.054,103.0,123.0,101.0,13.4,1505.3,328.1,-0.7,1.8,2470.169,13.32,0.027,353.7
2020-01-30T05:31:03,42.805,6.029,-0.003,0.057,-0.029,103.0,124.0,101.0,13.3,1505.3,323.9,-0.7,1.8,2470.128,13.32,0.057,357.0
2020-01-30T05:34:03,42.805,6.029,0.022,0.052,-0.016,103.0,128.0,100.0,13.4,1505.3,325.1,-0.7,1.8,2470.141,13.32,0.056,22.9
2020-01-30T05:37:03,42.805,6.029,-0.028,0.034,-0.037,102.0,123.0,100.0,13.4,1505.3,325.4,-0.7,1.8,2470.133,13.32,0.044,320.5
2020-01-30T05:40:03,42.805,6.029,-0.023,0.036,-0.021,103.0,126.0,100.0,13.4,1505.3,324.1,-0.7,1.8,2470.117,13.32,0.042,327.4
2020-01-30T05:43:03,42.805,6.029,0.003,0.041,-0.026,103.0,125.0,100.0,13.4,1505.3,328.5,-0.7,1.8,2470.145,13.32,0.041,4.2
2020-01-30T05:46:03,42.805,6.029,0.01,0.046,-0.002,103.0,125.0,99.0,13.4,1505.3,326.7,-0.7,1.8,2470.154,13.32,0.047,12.3
2020-01-30T05:49:03,42.805,6.029,0.02,0.031,0.005,103.0,126.0,99.0,13.3,1505.3,323.0,-0.7,1.8,2470.145,13.32,0.036,32.8
2020-01-30T05:52:03,42.805,6.029,0.002,0.059,-0.001,100.0,121.0,101.0,13.4,1505.3,326.4,-0.7,1.8,2470.126,13.32,0.059,1.9
2020-01-30T05:55:03,42.805,6.029,-0.012,0.04,0.011,102.0,126.0,100.0,13.4,1505.3,326.9,-0.7,1.9,2470.151,13.32,0.041,343.3
2020-01-30T05:58:03,42.805,6.029,0.004,0.032,-0.009,102.0,123.0,100.0,13.3,1505.3,323.8,-0.7,1.8,2470.137,13.32,0.032,7.1
2020-01-30T06:04:03,42.805,6.029,0.006,0.047,0.001,103.0,124.0,100.0,13.4,1505.2,326.9,-0.8,1.9,2470.159,13.3,0.047,7.3
2020-01-30T06:07:03,42.805,6.029,-0.007,0.02,-0.044,103.0,123.0,99.0,13.4,1505.3,325.1,-0.7,1.8,2470.146,13.31,0.021,340.7
2020-01-30T06:10:03,42.805,6.029,0.0,0.034,0.002,102.0,122.0,100.0,13.4,1505.3,325.0,-0.7,1.8,2470.149,13.32,0.034,0.0
2020-01-30T06:13:03,42.805,6.029,0.001,0.026,-0.03,103.0,121.0,100.0,13.3,1505.3,324.0,-0.7,1.8,2470.141,13.32,0.026,2.2
2020-01-30T06:16:03,42.805,6.029,0.011,0.017,0.004,103.0,120.0,101.0,13.3,1505.3,326.7,-0.7,1.9,2470.156,13.32,0.02,32.9
2020-01-30T06:19:03,42.805,6.029,0.006,0.041,-0.019,101.0,124.0,99.0,13.4,1505.3,324.9,-0.7,1.8,2470.194,13.32,0.041,8.3
2020-01-30T06:22:03,42.805,6.029,0.014,0.008,-0.011,103.0,123.0,98.0,13.4,1505.3,326.0,-0.7,1.9,2470.197,13.32,0.016,60.3
2020-01-30T06:25:03,42.805,6.029,0.04,0.032,-0.009,101.0,119.0,102.0,13.4,1505.3,327.9,-0.7,1.9,2470.162,13.32,0.051,51.3
2020-01-30T06:28:03,42.805,6.029,-0.002,0.031,-0.026,101.0,123.0,99.0,13.3,1505.3,323.5,-0.7,1.8,2470.168,13.32,0.031,356.3
2020-01-30T06:31:03,42.805,6.029,-0.009,0.021,-0.022,101.0,120.0,100.0,13.3,1505.3,322.9,-0.7,1.8,2470.186,13.32,0.022,336.8
2020-01-30T06:34:03,42.805,6.029,-0.003,0.051,-0.004,102.0,121.0,99.0,13.3,1505.3,326.9,-0.7,1.9,2470.155,13.33,0.051,356.6
2020-01-30T06:37:03,42.805,6.029,-0.015,0.016,-0.006,103.0,122.0,101.0,13.4,1505.3,325.5,-0.7,1.8,2470.143,13.32,0.021,316.9
2020-01-30T06:40:03,42.805,6.029,0.005,0.036,0.0,102.0,122.0,99.0,13.4,1505.3,328.2,-0.7,1.9,2470.171,13.33,0.036,7.9
2020-01-30T06:43:03,42.805,6.029,-0.004,0.024,-0.021,102.0,123.0,100.0,13.4,1505.3,328.6,-0.8,1.8,2470.205,13.33,0.024,350.5
2020-01-30T06:46:03,42.805,6.029,-0.014,0.028,-0.003,101.0,124.0,99.0,13.4,1505.3,324.8,-0.7,1.9,2470.18,13.32,0.031,333.4
2020-01-30T06:49:03,42.805,6.029,-0.002,0.032,-0.017,104.0,128.0,100.0,13.4,1505.3,324.0,-0.7,1.8,2470.255,13.33,0.032,356.4
2020-01-30T06:52:03,42.805,6.029,0.001,0.052,-0.017,102.0,122.0,99.0,13.4,1505.3,326.8,-0.7,1.8,2470.169,13.32,0.052,1.1
2020-01-30T06:55:03,42.805,6.029,0.006,0.054,-0.032,101.0,126.0,100.0,13.4,1505.3,324.9,-0.7,1.8,2470.2,13.32,0.054,6.3
2020-01-30T06:58:03,42.805,6.029,-0.005,0.015,-0.027,102.0,126.0,99.0,13.4,1505.3,325.0,-0.7,1.8,2470.178,13.32,0.015,341.6
2020-01-30T07:04:03,42.805,6.029,0.0,0.045,-0.032,102.0,124.0,99.0,13.4,1505.2,326.2,-0.8,1.8,2470.215,13.3,0.045,0.0
2020-01-30T07:07:03,42.805,6.029,-0.005,0.038,-0.03,103.0,122.0,100.0,13.4,1505.3,328.1,-0.7,1.8,2470.205,13.31,0.038,352.5
2020-01-30T07:10:03,42.805,6.029,0.046,0.038,-0.02,103.0,122.0,100.0,13.3,1505.3,326.5,-0.7,1.8,2470.215,13.32,0.059,50.4
2020-01-30T07:13:03,42.805,6.029,-0.006,0.032,-0.037,103.0,121.0,101.0,13.4,1505.3,323.7,-0.7,1.8,2470.176,13.32,0.032,349.4
2020-01-30T07:16:03,42.805,6.029,0.007,0.029,0.002,104.0,121.0,100.0,13.4,1505.3,327.8,-0.7,1.8,2470.242,13.32,0.029,13.6
2020-01-30T07:19:03,42.805,6.029,-0.02,0.042,-0.017,104.0,127.0,100.0,13.4,1505.3,327.0,-0.7,1.8,2470.236,13.32,0.046,334.5
2020-01-30T07:22:03,42.805,6.029,-0.012,0.034,-0.018,103.0,120.0,102.0,13.4,1505.3,324.5,-0.7,1.8,2470.236,13.32,0.036,340.6
2020-01-30T07:25:03,42.805,6.029,0.008,0.03,-0.034,104.0,124.0,101.0,13.3,1505.3,325.8,-0.7,1.8,2470.23,13.32,0.031,14.9
2020-01-30T07:28:03,42.805,6.029,-0.003,0.011,-0.034,104.0,123.0,100.0,13.4,1505.3,325.0,-0.7,1.8,2470.173,13.32,0.011,344.7
2020-01-30T07:31:03,42.805,6.029,-0.008,0.033,-0.016,102.0,122.0,101.0,13.4,1505.3,328.1,-0.7,1.8,2470.204,13.32,0.033,346.4
2020-01-30T07:34:03,42.805,6.029,0.016,0.026,-0.004,104.0,123.0,101.0,13.3,1505.3,324.8,-0.7,1.9,2470.186,13.32,0.03,31.6
2020-01-30T07:37:03,42.805,6.029,0.001,0.021,-0.021,104.0,122.0,100.0,13.3,1505.3,326.8,-0.7,1.8,2470.233,13.32,0.021,2.7
2020-01-30T07:40:03,42.805,6.029,-0.01,0.045,-0.015,103.0,121.0,102.0,13.4,1505.3,325.8,-0.7,1.8,2470.239,13.32,0.046,347.5
2020-01-30T07:43:03,42.805,6.029,0.003,0.048,-0.027,104.0,122.0,101.0,13.3,1505.3,326.3,-0.7,1.8,2470.248,13.32,0.048,3.6
2020-01-30T07:46:03,42.805,6.029,-0.01,0.03,-0.045,103.0,123.0,100.0,13.3,1505.3,327.0,-0.7,1.8,2470.231,13.32,0.031,341.6
2020-01-30T07:49:03,42.805,6.029,0.002,0.001,-0.025,102.0,122.0,101.0,13.4,1505.3,323.1,-0.7,1.8,2470.265,13.32,0.002,63.4
2020-01-30T07:52:03,42.805,6.029,-0.004,0.017,-0.035,103.0,124.0,100.0,13.3,1505.3,327.8,-0.7,1.8,2470.215,13.32,0.017,346.8
2020-01-30T07:55:03,42.805,6.029,-0.004,0.05,-0.04,104.0,123.0,100.0,13.4,1505.3,324.7,-0.7,1.8,2470.247,13.32,0.05,355.4
2020-01-30T07:58:03,42.805,6.029,0.021,0.025,-0.002,102.0,121.0,102.0,13.3,1505.3,326.5,-0.7,1.8,2470.24,13.32,0.032,40.0
2020-01-30T08:04:03,42.805,6.029,-0.005,0.035,-0.037,104.0,125.0,101.0,13.4,1505.2,326.1,-0.7,1.8,2470.263,13.3,0.035,351.9
2020-01-30T08:07:03,42.805,6.029,0.0,0.055,-0.011,104.0,124.0,101.0,13.4,1505.3,326.2,-0.8,1.8,2470.277,13.31,0.055,0.0
2020-01-30T08:10:03,42.805,6.029,0.038,0.033,0.028,105.0,121.0,101.0,13.3,1505.3,328.2,-0.7,1.8,2470.262,13.31,0.05,49.0
2020-01-30T08:13:03,42.805,6.029,0.036,0.043,0.016,102.0,123.0,102.0,13.4,1505.3,324.7,-0.7,1.8,2470.287,13.32,0.056,39.9
2020-01-30T08:16:03,42.805,6.029,0.013,0.032,-0.015,104.0,122.0,102.0,13.3,1505.3,323.7,-0.7,1.8,2470.262,13.32,0.034,22.1
2020-01-30T08:19:03,42.805,6.029,0.015,0.052,-0.037,105.0,126.0,100.0,13.3,1505.3,327.7,-0.7,1.8,2470.284,13.32,0.054,16.1
2020-01-30T08:22:03,42.805,6.029,-0.018,0.03,-0.046,103.0,124.0,101.0,13.4,1505.3,327.2,-0.7,1.8,2470.264,13.32,0.034,329.0
2020-01-30T08:25:03,42.805,6.029,-0.022,0.023,-0.03,103.0,122.0,103.0,13.4,1505.3,324.3,-0.7,1.9,2470.289,13.32,0.031,316.3
2020-01-30T08:28:03,42.805,6.029,-0.007,0.032,-0.045,103.0,122.0,102.0,13.4,1505.3,327.1,-0.7,1.8,2470.251,13.32,0.032,347.7
2020-01-30T08:31:03,42.805,6.029,0.016,0.038,-0.013,105.0,120.0,103.0,13.4,1505.3,328.1,-0.7,1.9,2470.291,13.32,0.041,22.8
2020-01-30T08:34:03,42.805,6.029,0.002,0.029,-0.003,104.0,124.0,102.0,13.4,1505.3,324.2,-0.7,1.8,2470.24,13.32,0.029,3.9
2020-01-30T08:37:03,42.805,6.029,0.007,0.04,-0.018,105.0,122.0,102.0,13.4,1505.3,325.5,-0.8,1.9,2470.29,13.32,0.04,9.9
2020-01-30T08:40:03,42.805,6.029,-0.015,0.028,-0.043,105.0,122.0,100.0,13.4,1505.3,322.7,-0.7,1.8,2470.281,13.32,0.031,331.8
2020-01-30T08:43:03,42.805,6.029,0.02,0.055,0.008,105.0,120.0,100.0,13.4,1505.3,327.0,-0.7,1.9,2470.301,13.32,0.058,20.0
2020-01-30T08:46:03,42.805,6.029,0.003,0.048,-0.045,104.0,120.0,101.0,13.4,1505.3,325.3,-0.7,1.8,2470.234,13.32,0.048,3.6
2020-01-30T08:49:03,42.805,6.029,0.01,0.039,0.003,104.0,120.0,100.0,13.4,1505.3,326.0,-0.7,1.8,2470.253,13.32,0.04,14.4
2020-01-30T08:52:03,42.805,6.029,0.0,0.024,-0.034,104.0,122.0,100.0,13.4,1505.3,324.0,-0.7,1.8,2470.286,13.32,0.024,0.0
2020-01-30T08:55:03,42.805,6.029,-0.019,0.032,-0.036,103.0,121.0,101.0,13.3,1505.3,324.5,-0.7,1.8,2470.281,13.32,0.037,329.3
2020-01-30T08:58:03,42.805,6.029,-0.002,0.061,-0.011,104.0,119.0,101.0,13.4,1505.3,324.7,-0.7,1.8,2470.29,13.32,0.061,358.1
2020-01-30T09:04:03,42.805,6.029,0.005,0.023,-0.027,104.0,123.0,103.0,13.4,1505.2,324.4,-0.7,1.8,2470.312,13.3,0.023,12.3
2020-01-30T09:07:03,42.805,6.029,0.024,0.051,-0.02,104.0,125.0,101.0,13.4,1505.3,326.1,-0.7,1.9,2470.377,13.31,0.056,25.2
2020-01-30T09:10:03,42.805,6.029,0.015,0.051,0.013,104.0,125.0,99.0,13.4,1505.3,326.4,-0.7,1.8,2470.337,13.32,0.053,16.4
2020-01-30T09:13:03,42.805,6.029,0.011,0.016,-0.026,104.0,121.0,102.0,13.3,1505.3,323.0,-0.7,1.8,2470.32,13.32,0.019,34.5
2020-01-30T09:16:03,42.805,6.029,0.013,0.028,-0.021,104.0,122.0,101.0,13.4,1505.3,327.8,-0.7,1.8,2470.309,13.32,0.03,24.9
2020-01-30T09:19:03,42.805,6.029,0.0,0.039,-0.017,104.0,121.0,101.0,13.4,1505.3,325.4,-0.7,1.8,2470.342,13.32,0.039,0.0
2020-01-30T09:22:03,42.805,6.029,0.01,0.025,-0.03,103.0,121.0,100.0,13.4,1505.3,324.4,-0.7,1.8,2470.337,13.32,0.026,21.8
2020-01-30T09:25:03,42.805,6.029,-0.009,0.055,-0.032,102.0,121.0,101.0,13.4,1505.3,323.6,-0.7,1.8,2470.364,13.32,0.055,350.7
2020-01-30T09:28:03,42.805,6.029,-0.02,0.034,-0.034,104.0,120.0,102.0,13.3,1505.3,324.2,-0.7,1.8,2470.284,13.32,0.039,329.5
2020-01-30T09:31:03,42.805,6.029,0.004,0.008,-0.007,105.0,119.0,100.0,13.4,1505.3,325.8,-0.7,1.8,2470.304,13.32,0.008,26.6
2020-01-30T09:34:03,42.805,6.029,-0.008,0.037,-0.051,104.0,123.0,100.0,13.3,1505.3,327.2,-0.7,1.8,2470.327,13.32,0.037,347.8
2020-01-30T09:37:03,42.805,6.029,-0.019,0.041,-0.033,104.0,122.0,104.0,13.4,1505.3,326.4,-0.7,1.9,2470.364,13.32,0.045,335.1
2020-01-30T09:40:03,42.805,6.029,0.013,0.057,0.0,103.0,122.0,100.0,13.3,1505.3,326.3,-0.7,1.8,2470.339,13.32,0.058,12.8
2020-01-30T09:43:03,42.805,6.029,0.025,0.046,-0.019,103.0,121.0,100.0,13.4,1505.3,323.4,-0.7,1.8,2470.327,13.32,0.052,28.5
2020-01-30T09:46:03,42.805,6.029,0.019,0.034,0.004,103.0,123.0,101.0,13.4,1505.3,326.0,-0.7,1.8,2470.321,13.32,0.038,29.2
2020-01-30T09:49:03,42.805,6.029,-0.006,0.03,-0.019,103.0,121.0,100.0,13.3,1505.3,328.2,-0.7,1.9,2470.328,13.32,0.03,348.7
2020-01-30T09:52:03,42.805,6.029,0.024,0.02,-0.032,105.0,120.0,100.0,13.3,1505.3,323.4,-0.7,1.8,2470.305,13.32,0.031,50.2
2020-01-30T09:55:03,42.805,6.029,0.01,0.028,-0.032,105.0,120.0,101.0,13.4,1505.3,326.5,-0.7,1.8,2470.326,13.32,0.029,19.6
2020-01-30T09:58:03,42.805,6.029,0.003,0.029,-0.04,104.0,121.0,101.0,13.3,1505.3,325.1,-0.7,1.8,2470.334,13.32,0.029,5.9
2020-01-30T10:04:03,42.805,6.029,-0.011,0.03,-0.048,102.0,122.0,101.0,13.3,1505.2,328.2,-0.7,1.9,2470.361,13.3,0.031,339.9